Location: Ponte Samoggia
(44.5667°N, 11.1333°E)
Time: 23:13:01
(UTC+00:00)

Cosmos 1271 Rocket - Pass Details

Date: 26 May 2022
Orbit: 495 x 539 km, 81.2° (Epoch: 29 June)

Event Time Altitude Azimuth Distance (km) Brightness Sun altitude
Rises 02:26:01 0° 337° (NNW) 2,626 6.6 -10.9°
Reaches altitude 10° 02:28:24 10° 324° (NW) 1,743 5.5 -10.6°
Maximum altitude 02:31:33 25° 268° (W) 1,074 3.9 -10.2°
Enters shadow 02:34:05 14° 219° (SW) 1,536 4.4 -9.8°
